STARLINK-32126, 60295

Orbit data source: Space-Track

STARLINK-32126, 60295 is a payload satellite owned by SpaceX/Seattle (US) in LEO that was launched on Sun, 28 Jul 2024 UTC via an FALCON 9 launch vehicle from the Air Force Eastern Test Range (AFETR). Payload-class satellites include a variety of spacecraft equipped with specific instruments for various scientific and technological missions. These include communications satellites like Starlink; space stations such as the ISS; scientific satellites like the Hubble; Earth observation satellites from companies like Planet Labs, Umbra, and HawkEye 360; GPS; miniature CubeSats for education and research; and military/defense satellites.

Loading next visibility...
Identifier
60295, 2024-132T
Orbit
LEO
Country
Flag of USUS
Related business
Manufacturer
SpaceX/Seattle
Mission
Operational Commercial Communications
Bus & Motor
STARLINK V2M, Unknown motor
Mass
730 kg wet, ~700 kg dry
Launch date (UTC)
2024-07-28 (2 years ago)
Launch vehicle
FALCON 9
Launch site
Air Force Eastern Test Range (AFETR)
Object type
Payload
Rocket body
Debris
Shape & HBR
Box + 2 Pan, 17.7 m
Radar Cross Section
33.884 m², Large (>1 m²)

Expand to show TLE details & history
Last TLE update: 9 hours ago

TLE from 9 hours ago
0 STARLINK-32126
1 60295U 24132T   26120.25002315 -.00005311  00000-0 -15945-3 0  9992
2 60295  53.1599 173.2483 0001398  88.9135 142.9032 15.31708919  5863
Epoch: 2026-04-30T06:00Z
TLE epoch observation values (Epoch: 2026-04-30T06:00:02.000Z)
Latitude
-39.19333°
Longitude
82.44986°
Altitude
484.314 km
Speed
7.623 km/s
True Right ascension
02h 02m 37s
True Declination
-39° 01' 06"
Sunlit
Object was in daylight at epoch
Visualization orbit readout
Latitude
Unknown
Longitude
Unknown
Altitude
Unknown
Speed
Unknown
Apparent Right ascension
Unknown
Apparent Declination
Unknown
Sunlit
N/A
Visualization observer readout
Local Sidereal Time
22:56:13
Azimuth
Unknown
Elevation
Unknown
Doppler factor
Unknown
Orbital elements
Apogee altitude
471.928 km
Perigee altitude
470.013 km
Semi-major axis
6,849.107 km
Eccentricity
0.00014
Inclination
53.1599°
RAAN
173.2483°
Arg. of periapsis
88.9135°
True anomaly
142.91286°
Mean anomaly
142.9032°
Eccentric anomaly
142.90803°
Mean motion
3.82906 °/min
Orbital period
94.02 mins
BSTAR
-0.00015945
Loading maneuver chart data...
Computing Atmospheric mass density...
Loading historical data...
Loading historical data...
Loading historical data...
Loading historical data...
Loading historical data...
Loading historical data...
Loading historical data...

Documentation

Showing up to 5 results
|